Regional Weather Roundup
Issued by NWS

Home | Current Version | Previous Version | Graphics & Text | Print | Product List | Glossary On
Versions: 1 2 3 4 5 6 7 8 9 10 11 12 13 14 15 16 17 18 19 20 21 22 23 24 25 26 27 28 29 30 31 32 33 34 35 36 37 38 39 40 41 42 43 44 45 46 47 48 49 50
000
ASUS43 KDMX 121403
RWRIA

WEATHER ROUNDUP FOR IOWA
NATIONAL WEATHER SERVICE DES MOINES IA
800 AM CST FRI FEB 12 2016

NOTE: "FAIR" INDICATES FEW OR NO CLOUDS BELOW 12,000 FEET WITH NO
SIGNIFICANT WEATHER AND/OR OBSTRUCTIONS TO VISIBILITY.

* - THESE STATIONS ARE NOT NWS STATIONS...THUS NOT UNDER NWS
QUALITY CONTROL.  THEY ALSO DO NOT REPORT WEATHER SUCH
AS PRECIPITATION OR FOG.

IAZ001>003-012>014-020>022-031>034-043>046-121500-
   NORTHWEST IOWA

CITY           SKY/WX    TMP DP  RH WIND       PRES   REMARKS
CARROLL *      CLOUDY    18  14  86 NW16      30.36R WCI   3
CHEROKEE *     CLOUDY    14  10  83 N9        30.40R WCI   2
DENISON *      CLOUDY    18  14  86 N16       30.36R WCI   3
LE MARS *      CLOUDY    18  14  86 N12G18    30.42R WCI   5
ORANGE CITY *  CLOUDY    14  12  92 N8        30.39R WCI   3
SHELDON *      CLOUDY    10   7  85 N13       30.39R WCI  -5
SIOUX CITY     CLOUDY    22  15  75 N16       30.42R WCI   8
SPENCER        CLOUDY    11   5  77 N17       30.39R WCI  -6
STORM LAKE *   CLOUDY    14  12  92 N16       30.37R WCI  -2
$$

IAZ055>058-069>071-079>083-090>094-121500-
   SOUTHWEST IOWA

CITY           SKY/WX    TMP DP  RH WIND       PRES   REMARKS
ATLANTIC *     CLOUDY    19  16  86 N12       30.36R WCI   7
AUDUBON *      CLOUDY    18  14  86 N10       30.35R WCI   6
CLARINDA *     CLOUDY    23  18  80 N14       30.40R WCI  11
COUNCIL BLFS * CLOUDY    19  18  93 NW12      30.38R WCI   7
CRESTON *      CLOUDY    19  14  79 N20G26    30.34R WCI   4
HARLAN  *      CLOUDY    19  16  86 N15       30.40R WCI   5
LAMONI         CLOUDY    20  15  81 N15       30.32R WCI   6
RED OAK *      CLOUDY    21  18  86 N9G17     30.38R WCI  11
SHENANDOAH *   CLOUDY    23  19  86 N15       30.41R WCI  10
$$

IAZ047>049-059>061-072>074-084-121500-
   CENTRAL IOWA

CITY           SKY/WX    TMP DP  RH WIND       PRES   REMARKS
AMES           LGT SNOW  17  12  80 N20       30.33R WCI   1
ANKENY *       CLOUDY    19  14  79 N9G17     30.35R WCI   9
BOONE *        FLURRIES  16  12  86 NW16      30.32R WCI   0
CHARITON *     FLURRIES  19  14  79 NW20G25   30.32R WCI   4
DES MOINES     CLOUDY    20  12  71 NW12      30.34R WCI   8
GRINNELL*      MOCLDY    18  14  86 NW15      30.29R WCI   3
KNOXVILLE *    CLOUDY    19  12  73 NW15      30.30R WCI   5
MARSHALLTOWN   CLOUDY    16  12  84 NW14      30.31R WCI   2
NEWTON *       FLURRIES  18  14  86 N22       30.30R WCI   0
PELLA *        CLOUDY    19  14  81 NW13      30.32R WCI   6
$$

IAZ004>006-015-016-023>025-035-036-121500-
   NORTH CENTRAL IOWA

CITY           SKY/WX    TMP DP  RH WIND       PRES   REMARKS
ALGONA *       PTCLDY    12   9  85 N15G22    30.33R WCI  -4
CLARION *      FLURRIES  14   9  79 NW18      30.33R WCI  -3
ESTHERVILLE    MOCLDY     9   5  84 NW20      30.36R WCI -10
FORT DODGE *   CLOUDY    12   7  79 NW12      30.36R WCI  -2
MASON CITY     CLOUDY    11   7  84 NW17      30.30R WCI  -6
FOREST CITY *    N/A     12   9  85 NW16G25   30.30R WCI  -4
WEBSTER CITY * CLOUDY    14  10  85 NW21      30.32R WCI  -4
IOWA FALLS *   MOCLDY    16  12  86 NW17      30.31R FOG     WCI   0
$$

IAZ007>011-017>019-026>030-037>042-050>054-066-121500-
   NORTHEAST IOWA

CITY           SKY/WX    TMP DP  RH WIND       PRES   REMARKS
CEDAR RAPIDS   CLOUDY    17  14  88 NW12      30.26R FOG     WCI   4
CHARLES CITY * FLURRIES  14  10  85 NW16      30.28R WCI  -2
CLINTON *      CLOUDY    19  15  84 NW17      30.22R WCI   4
DECORAH *      FLURRIES  12   7  79 NW10G21   30.23R WCI  -1
DUBUQUE        CLOUDY    14   8  77 NW15      30.20R WCI  -1
MONTICELLO *   CLOUDY    16  10  79 NW12      30.24R WCI   3
OELWEIN *      CLEAR     12   9  85 NW14      30.26R WCI  -3
WATERLOO       CLEAR     15   9  76 NW15      30.29R WCI   0
$$

IAZ064-065-067-068-078-121500-
   EAST CENTRAL IOWA

CITY           SKY/WX    TMP DP  RH WIND       PRES   REMARKS
DAVENPORT      CLOUDY    20  14  77 NW17      30.23R WCI   5
IOWA CITY      CLOUDY    19  14  81 NW13G21   30.29R WCI   6
MT. PLEASANT * CLOUDY    24  20  84 NW10      30.26R WCI  14
MUSCATINE *    FLURRIES  23  18  80 NW15      30.27R WCI  10
QUAD CITIES    CLOUDY    22  16  78 NW18      30.23R WCI   7
$$

IAZ062-063-075>077-085>089-095>099-121500-
   SOUTHEAST IOWA

CITY           SKY/WX    TMP DP  RH WIND       PRES   REMARKS
BURLINGTON     CLOUDY    22  18  85 NW9       30.24R WCI  12
FAIRFIELD *    FLURRIES  21  16  79 NW20      30.27R WCI   6
FORT MADISON * CLOUDY    21  18  86 NW10      30.26R WCI  10
KEOKUK *       CLOUDY    21  19  93 VRB3      30.27R
OSKALOOSA *    CLOUDY    19  16  86 NW13      30.30R WCI   7
OTTUMWA        CLOUDY    20  17  88 NW13      30.30R WCI   7
WASHINGTON *   FLURRIES  21  18  86 NW17      30.28R WCI   7
$$

ABBREVIATIONS USED IN REMARKS
   TC - TEMPERATURES IN CELSIUS
  WCI - WIND CHILL INDEX
   HX - HEAT INDEX
  VSB - VISIBILITY
$$




USA.gov is the U.S. government's official web portal to all federal, state and local government web resources and services.